EW9826 Weather Reports


time (UTC)temp
F
wind
direction
speed
knots
gust
knots
rain 1hr
in
rain 24hr
in
rain mn
in
humidity
%
barometer
mb
20260902232555 66 204 5.2 12.2 0.00 0.05 0.00 76 1017.2
20260902232055 66 233 6.1 10.4 0.00 0.05 0.00 76 1017.2
20260902231556 66 230 5.2 10.4 0.00 0.05 0.00 76 1017.3
20260902231056 66 214 4.3 17.4 0.00 0.05 0.00 76 1017.3
20260902230056 67 226 6.1 15.6 0.00 0.05 0.00 75 1017.5
20260902225556 67 215 5.2 10.4 0.00 0.05 0.00 75 1017.4
20260902225056 66 216 5.2 10.4 0.00 0.05 0.00 75 1017.5
20260902224556 66 230 4.3 10.4 0.00 0.05 0.00 75 1017.6
20260902221555 67 216 4.3 10.4 0.00 0.05 0.00 74 1017.6
20260902221056 67 214 5.2 10.4 0.00 0.05 0.00 74 1017.8
20260902214555 67 223 6.1 15.6 0.00 0.05 0.05 74 1017.9
20260902214056 67 224 4.3 12.2 0.00 0.05 0.05 75 1017.9
20260902213056 67 228 6.1 12.2 0.00 0.05 0.05 77 1018.0
20260902212555 67 246 6.1 12.2 0.00 0.05 0.05 77 1018.0
20260902212056 67 234 7.0 13.9 0.00 0.05 0.05 77 1018.2
20260902211555 67 225 6.1 11.3 0.00 0.05 0.05 78 1018.3
20260902211055 67 241 2.6 10.4 0.00 0.05 0.05 79 1018.1
20260902210055 67 249 2.6 7.0 0.00 0.05 0.05 80 1018.0
20260902205056 67 215 5.2 8.7 0.00 0.05 0.05 81 1018.2
20260902204555 67 193 4.3 7.0 0.00 0.05 0.05 81 1018.2
20260902201555 67 200 4.3 6.1 0.00 0.05 0.05 80 1018.4
20260902201055 67 215 2.6 6.1 0.00 0.05 0.05 80 1018.4
20260902195555 67 230 4.3 7.8 0.00 0.05 0.05 79 1018.6
20260902195056 67 200 3.5 7.0 0.00 0.05 0.05 79 1018.8
20260902194555 67 211 4.3 7.8 0.00 0.05 0.05 78 1018.7
20260902194057 67 228 2.6 7.0 0.00 0.05 0.05 78 1018.8
20260902192555 67 227 4.3 7.0 0.00 0.05 0.05 77 1018.8
20260902185555 68 240 4.3 8.7 0.00 0.05 0.05 78 1018.9
20260902185056 68 254 4.3 10.4 0.00 0.05 0.05 78 1018.9
20260902184555 68 217 3.5 8.7 0.00 0.05 0.05 78 1018.9
20260902184055 68 229 5.2 10.4 0.00 0.05 0.05 78 1018.9
20260902183555 68 225 3.5 6.1 0.00 0.05 0.05 78 1018.9
20260902183056 68 249 4.3 10.4 0.00 0.05 0.05 77 1018.9
20260902181555 68 245 4.3 10.4 0.00 0.05 0.05 77 1018.8
20260902181056 68 235 1.7 7.8 0.00 0.05 0.05 77 1018.9
20260902174555 68 244 4.3 10.4 0.00 0.05 0.05 76 1018.9
20260902174055 68 237 5.2 11.3 0.00 0.05 0.05 76 1018.9
20260902173556 68 233 4.3 8.7 0.00 0.05 0.05 76 1018.9
20260902164055 69 261 3.5 10.4 0.00 0.05 0.05 74 1019.0
20260902163554 69 219 2.6 7.0 0.00 0.05 0.05 73 1019.0
20260902163055 69 219 3.5 6.1 0.00 0.05 0.05 73 1019.0
20260902162555 69 265 2.6 8.7 0.00 0.05 0.05 72 1019.0
20260902162055 69 258 2.6 7.0 0.00 0.05 0.05 71 1019.1
20260902161555 69 231 2.6 8.7 0.00 0.05 0.05 70 1019.1
20260902161056 69 200 5.2 10.4 0.00 0.05 0.05 69 1019.3
20260902154555 69 229 4.3 8.7 0.00 0.05 0.05 70 1019.4
20260902154055 69 247 3.5 7.0 0.00 0.05 0.05 70 1019.5
20260902153555 69 234 3.5 8.7 0.00 0.05 0.05 70 1019.5
20260902153056 69 233 2.6 7.0 0.00 0.05 0.05 72 1019.5
20260902152555 69 202 4.3 8.7 0.00 0.05 0.05 73 1019.5
20260902152056 69 275 3.5 7.0 0.00 0.05 0.05 73 1019.5
20260902140054 71 226 5.2 11.3 0.00 0.05 0.05 65 1019.8
20260902135555 71 201 3.5 10.4 0.00 0.05 0.05 65 1019.7
20260902135055 71 243 7.0 11.3 0.00 0.05 0.05 64 1019.8
20260902134554 72 236 7.8 13.9 0.00 0.05 0.05 65 1019.8
20260902134056 71 244 3.5 10.4 0.00 0.05 0.05 67 1019.7
20260902133555 71 245 6.1 11.3 0.00 0.05 0.05 68 1019.8
20260902132055 70 263 7.0 10.4 0.00 0.05 0.05 71 1019.9
20260902131555 70 263 4.3 7.8 0.00 0.05 0.05 72 1019.9
20260902131055 69 244 2.6 7.8 0.00 0.05 0.05 74 1019.9
20260902125056 69 236 4.3 7.0 0.00 0.05 0.05 73 1019.9
20260902124056 69 267 2.6 8.7 0.00 0.05 0.05 73 1019.8
20260902123555 69 254 2.6 7.0 0.00 0.05 0.05 73 1019.9
20260902123055 69 288 4.3 7.8 0.00 0.05 0.05 72 1019.9
20260902122554 69 253 2.6 7.8 0.00 0.05 0.05 72 1019.9
20260902121055 69 281 4.3 10.4 0.00 0.05 0.05 72 1019.9
20260902115554 69 281 4.3 12.2 0.00 0.05 0.05 71 1019.9
20260902112554 68 287 4.3 10.4 0.00 0.05 0.05 81 1019.9
20260902112056 68 249 4.3 7.8 0.00 0.05 0.05 81 1020.0
20260902110054 66 232 2.6 4.3 0.05 0.05 0.05 88 1020.1
20260902105554 66 232 1.7 4.3 0.05 0.05 0.05 88 1020.0
20260902105055 66 232 2.6 6.1 0.05 0.05 0.05 88 1020.0
20260902104554 66 232 2.6 5.2 0.05 0.05 0.05 88 1020.1
20260902104054 66 227 1.7 2.6 0.05 0.05 0.05 88 1020.2
20260902103554 65 227 1.7 4.3 0.05 0.05 0.05 87 1020.1
20260902103056 66 227 1.7 4.3 0.05 0.05 0.05 87 1020.2
20260902100054 68 227 5.2 11.3 0.00 0.00 0.00 80 1020.0
20260902095554 69 255 4.3 7.8 0.00 0.00 0.00 80 1019.9
20260902095055 69 259 2.6 6.1 0.00 0.00 0.00 81 1019.9
20260902091055 68 242 6.1 10.4 0.00 0.00 0.00 82 1019.9
20260902084553 67 245 5.2 8.7 0.00 0.00 0.00 84 1019.9
20260902084054 67 262 4.3 7.8 0.00 0.00 0.00 85 1019.9
20260902075054 65 215 2.6 7.0 0.00 0.00 0.00 87 1019.4
20260902074554 65 229 2.6 6.1 0.00 0.00 0.00 88 1019.4
20260902074055 65 242 3.5 6.1 0.00 0.00 0.00 88 1019.4
20260902073555 65 225 4.3 7.8 0.00 0.00 0.00 88 1019.4
20260902073054 64 203 3.5 7.0 0.00 0.00 0.00 88 1019.4
20260902072554 64 233 4.3 7.8 0.00 0.00 0.00 89 1019.3
20260902072054 64 236 4.3 8.7 0.00 0.00 0.00 88 1019.2
20260902071554 64 241 3.5 7.8 0.00 0.00 0.00 88 1019.2
20260902071055 64 235 3.5 8.7 0.00 0.00 0.00 87 1019.1
20260902070054 64 223 2.6 7.0 0.00 0.00 0.00 88 1019.1
20260902065554 64 229 3.5 7.8 0.00 0.00 0.00 88 1019.0
20260902062554 62 209 4.3 7.8 0.00 0.00 0.00 91 1019.0
20260902062054 61 205 3.5 7.8 0.00 0.00 0.00 91 1018.9
20260902061554 61 212 3.5 8.7 0.00 0.00 0.00 91 1018.9
20260902061056 61 210 2.6 6.1 0.00 0.00 0.00 91 1018.9
20260902052054 61 209 2.6 7.8 0.00 0.00 0.00 90 1018.9
20260902050053 61 200 4.3 6.1 0.00 0.00 0.00 90 1018.7
20260902045554 61 201 2.6 6.1 0.00 0.00 0.00 90 1018.7
20260902042054 61 200 2.6 5.2 0.00 0.00 0.00 89 1018.7
20260902041554 61 198 2.6 6.1 0.00 0.00 0.00 89 1018.8
20260902041055 61 193 2.6 7.8 0.00 0.00 0.00 89 1018.7
20260902035054 62 205 1.7 4.3 0.00 0.00 0.00 88 1018.7
20260902034554 62 205 1.7 5.2 0.00 0.00 0.00 88 1018.8
20260902034055 62 205 2.6 6.1 0.00 0.00 0.00 88 1018.9
20260902033053 62 202 2.6 6.1 0.00 0.00 0.00 88 1018.9
20260902032554 62 202 4.3 6.1 0.00 0.00 0.00 88 1018.9
20260902031553 62 201 1.7 6.1 0.00 0.00 0.00 87 1018.9
20260902031054 62 200 2.6 6.1 0.00 0.00 0.00 87 1018.9
20260902024054 62 201 1.7 6.1 0.00 0.00 0.00 86 1019.1
20260902022554 62 218 0.9 2.6 0.00 0.00 0.00 86 1019.2
20260902022054 62 219 2.6 7.0 0.00 0.00 0.00 86 1019.3
20260902013553 62 217 2.6 5.2 0.00 0.00 0.00 85 1019.3
20260902012054 62 219 1.7 5.2 0.00 0.00 0.00 86 1019.4
20260902011553 62 219 2.6 5.2 0.00 0.00 0.00 86 1019.4
20260902004553 61 227 2.6 5.2 0.00 0.00 0.00 85 1019.5
20260902004054 61 229 1.7 4.3 0.00 0.00 0.00 85 1019.4
20260902003554 61 231 2.6 4.3 0.00 0.00 0.00 85 1019.5
20260902003054 61 232 1.7 2.6 0.00 0.00 0.00 85 1019.5
20260902002553 61 232 1.7 4.3 0.00 0.00 0.00 85 1019.5
20260902002054 61 233 2.6 4.3 0.00 0.00 0.00 85 1019.5
20260902001553 61 233 2.6 4.3 0.00 0.00 0.00 85 1019.5
20260902001054 61 234 0.9 4.3 0.00 0.00 0.00 84 1019.5
20260902000054 61 234 0.9 2.6 0.00 0.00 0.00 84 1019.7
20260901235553 61 234 0.9 2.6 0.00 0.00 0.00 84 1019.7
20260901235054 61 234 1.7 5.2 0.00 0.00 0.00 84 1019.7